GW1975 Weather Reports


Display with metric or nautical units.
time (UTC)temp
F
wind
direction
speed
MPH
gust
MPH
rain 1hr
in
rain 24hr
in
rain mn
in
humidity
%
barometer
mb
20260509055235 57 142 0.0 0.0 0.00 0.00 0.00 96 1009.0
20260509054737 57 135 0.0 0.0 0.00 0.00 0.00 96 1010.0
20260509054235 57 287 0.0 1.0 0.00 0.00 0.00 96 1010.0
20260509053735 57 309 0.0 1.0 0.00 0.00 0.00 96 1010.0
20260509053235 57 122 1.0 1.0 0.00 0.00 0.00 96 1010.0
20260509052736 57 110 0.0 1.0 0.00 0.00 0.00 96 1010.0
20260509052235 57 224 0.0 0.0 0.00 0.00 0.00 96 1010.0
20260509051735 57 113 0.0 0.0 0.00 0.00 0.00 96 1010.0
20260509051237 57 119 0.0 1.0 0.00 0.00 0.00 96 1010.0
20260509050735 57 126 2.0 3.0 0.00 0.00 0.00 96 1010.0
20260509050235 57 142 1.0 2.0 0.00 0.00 0.00 96 1010.0
20260509045735 57 152 1.0 2.0 0.00 0.00 0.00 96 1010.0
20260509045235 57 147 1.0 1.0 0.00 0.00 0.00 96 1010.0
20260509044735 57 150 1.0 3.0 0.00 0.00 0.00 95 1010.0
20260509044235 57 195 0.0 3.0 0.00 0.00 0.00 95 1010.0
20260509043735 57 140 1.0 3.0 0.00 0.00 0.00 95 1010.0
20260509043237 57 145 1.0 2.0 0.00 0.00 0.00 95 1010.0
20260509042736 57 137 2.0 3.0 0.00 0.00 0.00 95 1010.0
20260509042235 57 148 0.0 1.0 0.00 0.00 0.00 95 1010.0
20260509041735 58 154 2.0 2.0 0.00 0.00 0.00 95 1010.0
20260509041235 58 192 1.0 3.0 0.00 0.00 0.00 95 1010.0
20260509040737 58 136 0.0 2.0 0.00 0.00 0.00 94 1010.0
20260509040235 58 135 0.0 1.0 0.00 0.00 0.00 94 1010.0
20260509035736 58 122 0.0 1.0 0.00 0.00 0.00 94 1011.0
20260509035235 58 242 0.0 1.0 0.00 0.00 0.00 94 1011.0
20260509034736 58 224 0.0 1.0 0.00 0.00 0.00 94 1011.0
20260509034235 57 135 0.0 0.0 0.00 0.00 0.00 93 1011.0
20260509033735 57 89 0.0 1.0 0.00 0.00 0.00 93 1011.0
20260509033236 58 119 0.0 0.0 0.00 0.00 0.00 93 1011.0
20260509032735 58 40 1.0 2.0 0.00 0.00 0.00 93 1011.0
20260509032235 58 217 0.0 2.0 0.00 0.00 0.00 93 1011.0
20260509031738 58 230 0.0 0.0 0.00 0.00 0.00 93 1012.0
20260509031235 58 333 0.0 2.0 0.00 0.00 0.00 93 1012.0
20260509030736 58 62 0.0 0.0 0.00 0.00 0.00 92 1011.0
20260509030235 59 162 0.0 1.0 0.00 0.00 0.00 92 1011.0
20260509025735 59 220 0.0 0.0 0.00 0.00 0.00 91 1011.0
20260509025235 59 117 0.0 2.0 0.00 0.00 0.00 91 1011.0
20260509024735 59 240 0.0 0.0 0.00 0.00 0.00 91 1011.0
20260509024235 59 322 0.0 2.0 0.00 0.00 0.00 90 1011.0
20260509023735 59 164 0.0 0.0 0.00 0.00 0.00 90 1011.0
20260509023236 60 134 1.0 2.0 0.00 0.00 0.00 90 1011.0
20260509022735 60 37 0.0 0.0 0.00 0.00 0.00 87 1012.0
20260509022236 60 235 0.0 1.0 0.00 0.00 0.00 87 1011.0
20260509021735 60 220 0.0 0.0 0.00 0.00 0.00 86 1011.0
20260509021235 60 220 0.0 0.0 0.00 0.00 0.00 85 1011.0
20260509020735 60 130 0.0 0.0 0.00 0.00 0.00 85 1011.0
20260509020235 60 217 0.0 0.0 0.00 0.00 0.00 84 1011.0
20260509015735 60 224 0.0 0.0 0.00 0.00 0.00 83 1011.0
20260509015235 60 351 0.0 1.0 0.00 0.00 0.00 84 1010.0
20260509014735 60 315 0.0 2.0 0.00 0.00 0.00 83 1010.0
20260509014235 60 342 0.0 1.0 0.00 0.00 0.00 84 1010.0
20260509013735 61 336 0.0 2.0 0.00 0.00 0.00 84 1010.0
20260509013236 61 335 3.0 4.0 0.00 0.00 0.00 81 1009.0
20260509012736 61 106 1.0 3.0 0.00 0.00 0.00 81 1009.0
20260509012235 61 35 1.0 3.0 0.00 0.00 0.00 80 1009.0
20260509011736 61 75 3.0 4.0 0.00 0.00 0.00 80 1009.0
20260509011235 61 76 2.0 5.0 0.00 0.00 0.00 80 1010.0
20260509010735 61 83 1.0 3.0 0.00 0.00 0.00 80 1010.0
20260509010235 62 332 3.0 3.0 0.00 0.00 0.00 81 1010.0
20260509005736 62 68 0.0 5.0 0.00 0.00 0.00 77 1010.0
20260509005236 63 318 3.0 5.0 0.00 0.00 0.00 74 1010.0
20260509004735 64 310 5.0 5.0 0.00 0.00 0.00 73 1009.0
20260509004235 64 311 1.0 6.0 0.00 0.00 0.00 72 1010.0
20260509003735 65 352 0.0 3.0 0.00 0.00 0.00 68 1009.0
20260509003235 66 331 2.0 5.0 0.00 0.00 0.00 67 1009.0
20260509002735 67 349 2.0 5.0 0.00 0.00 0.00 63 1009.0
20260509002236 67 327 4.0 5.0 0.00 0.00 0.00 59 1009.0
20260509001736 68 345 2.0 3.0 0.00 0.00 0.00 59 1009.0
20260509001235 68 333 2.0 5.0 0.00 0.00 0.00 59 1009.0
20260509000735 68 298 3.0 4.0 0.00 0.00 0.00 57 1009.0
20260509000235 69 295 3.0 4.0 0.00 0.00 0.00 56 1009.0
20260508235735 69 333 4.0 5.0 0.00 0.00 0.00 54 1009.0
20260508235235 70 303 3.0 4.0 0.00 0.00 0.00 52 1009.0
20260508234735 70 293 2.0 3.0 0.00 0.00 0.00 52 1009.0
20260508234235 70 323 2.0 3.0 0.00 0.00 0.00 51 1009.0
20260508233736 70 302 2.0 4.0 0.00 0.00 0.00 51 1009.0
20260508233235 70 294 2.0 4.0 0.00 0.00 0.00 50 1009.0
20260508232735 71 291 2.0 3.0 0.00 0.00 0.00 50 1009.0
20260508232236 71 283 2.0 2.0 0.00 0.00 0.00 50 1009.0
20260508231735 71 288 2.0 3.0 0.00 0.00 0.00 48 1009.0
20260508231236 71 281 1.0 3.0 0.00 0.00 0.00 48 1009.0
20260508230735 71 287 1.0 2.0 0.00 0.00 0.00 48 1010.0
20260508230235 71 296 3.0 3.0 0.00 0.00 0.00 47 1009.0
20260508225735 71 290 2.0 4.0 0.00 0.00 0.00 47 1010.0
20260508225235 72 319 4.0 5.0 0.00 0.00 0.00 46 1009.0
20260508224735 72 300 3.0 4.0 0.00 0.00 0.00 45 1010.0
20260508224235 72 309 4.0 5.0 0.00 0.00 0.00 45 1010.0
20260508223735 73 300 3.0 5.0 0.00 0.00 0.00 46 1009.0
20260508223235 73 321 4.0 4.0 0.00 0.00 0.00 43 1010.0
20260508222736 73 271 2.0 4.0 0.00 0.00 0.00 41 1009.0
20260508222235 75 260 1.0 2.0 0.00 0.00 0.00 39 1010.0
20260508221735 75 255 3.0 4.0 0.00 0.00 0.00 38 1010.0
20260508221235 75 311 3.0 4.0 0.00 0.00 0.00 40 1010.0
20260508220736 75 281 4.0 4.0 0.00 0.00 0.00 38 1010.0
20260508220235 74 247 3.0 4.0 0.00 0.00 0.00 40 1010.0
20260508215736 73 236 1.0 4.0 0.00 0.00 0.00 41 1010.0
20260508215235 73 256 2.0 4.0 0.00 0.00 0.00 40 1010.0
20260508214735 75 328 4.0 6.0 0.00 0.00 0.00 39 1010.0
20260508214236 75 260 4.0 4.0 0.00 0.00 0.00 39 1010.0
20260508213735 75 304 3.0 4.0 0.00 0.00 0.00 43 1010.0
20260508213235 74 278 2.0 4.0 0.00 0.00 0.00 41 1010.0
20260508212735 74 242 3.0 6.0 0.00 0.00 0.00 41 1010.0
20260508212235 74 234 3.0 5.0 0.00 0.00 0.00 41 1010.0
20260508211736 73 271 2.0 5.0 0.00 0.00 0.00 42 1010.0
20260508211235 73 280 3.0 4.0 0.00 0.00 0.00 43 1010.0
20260508210735 72 300 2.0 3.0 0.00 0.00 0.00 42 1011.0
20260508210235 73 258 2.0 4.0 0.00 0.00 0.00 42 1010.0
20260508205735 73 261 3.0 5.0 0.00 0.00 0.00 42 1010.0
20260508205235 73 278 3.0 8.0 0.00 0.00 0.00 44 1011.0
20260508204735 74 249 4.0 8.0 0.00 0.00 0.00 41 1011.0
20260508204235 73 239 3.0 5.0 0.00 0.00 0.00 44 1011.0
20260508203735 73 273 3.0 5.0 0.00 0.00 0.00 42 1011.0
20260508203235 75 309 5.0 7.0 0.00 0.00 0.00 44 1011.0
20260508202735 73 306 4.0 4.0 0.00 0.00 0.00 45 1011.0
20260508202236 73 235 2.0 6.0 0.00 0.00 0.00 46 1011.0
20260508201735 73 253 1.0 5.0 0.00 0.00 0.00 46 1011.0
20260508201236 73 268 4.0 5.0 0.00 0.00 0.00 46 1012.0
20260508200736 72 241 2.0 5.0 0.00 0.00 0.00 45 1011.0
20260508200235 71 281 2.0 5.0 0.00 0.00 0.00 45 1012.0
20260508195736 72 248 2.0 5.0 0.00 0.00 0.00 45 1012.0
20260508195235 72 250 2.0 9.0 0.00 0.00 0.00 44 1011.0
20260508194735 72 293 3.0 4.0 0.00 0.00 0.00 43 1012.0
20260508194238 73 254 6.0 6.0 0.00 0.00 0.00 42 1012.0
20260508193735 72 279 5.0 5.0 0.00 0.00 0.00 43 1012.0
20260508193235 72 241 1.0 4.0 0.00 0.00 0.00 43 1012.0
20260508192735 73 236 0.0 4.0 0.00 0.00 0.00 43 1012.0
20260508192236 73 251 3.0 7.0 0.00 0.00 0.00 43 1012.0
20260508191735 72 268 3.0 3.0 0.00 0.00 0.00 44 1012.0
20260508191238 72 263 5.0 5.0 0.00 0.00 0.00 44 1012.0
20260508190735 72 286 4.0 4.0 0.00 0.00 0.00 45 1012.0
20260508190235 71 256 2.0 4.0 0.00 0.00 0.00 48 1012.0
20260508185737 71 240 0.0 2.0 0.00 0.00 0.00 49 1012.0
20260508185235 71 267 2.0 5.0 0.00 0.00 0.00 49 1012.0
20260508184735 70 243 0.0 2.0 0.00 0.00 0.00 51 1012.0
20260508184235 70 195 0.0 5.0 0.00 0.00 0.00 52 1012.0
20260508183735 69 152 1.0 2.0 0.00 0.00 0.00 51 1012.0
20260508183235 69 261 2.0 2.0 0.00 0.00 0.00 50 1012.0
20260508182737 69 243 2.0 3.0 0.00 0.00 0.00 50 1012.0
20260508182236 69 230 1.0 2.0 0.00 0.00 0.00 51 1012.0
20260508181735 69 275 2.0 3.0 0.00 0.00 0.00 51 1013.0
20260508181236 69 283 2.0 4.0 0.00 0.00 0.00 50 1013.0
20260508180738 68 242 2.0 3.0 0.00 0.00 0.00 51 1013.0
20260508180236 68 250 2.0 2.0 0.00 0.00 0.00 53 1013.0
20260508175735 68 293 2.0 2.0 0.00 0.00 0.00 51 1013.0
20260508175236 68 262 2.0 4.0 0.00 0.00 0.00 50 1013.0
20260508174735 68 261 2.0 4.0 0.00 0.00 0.00 50 1013.0
20260508174235 67 271 3.0 3.0 0.00 0.00 0.00 53 1013.0
20260508173735 67 285 3.0 5.0 0.00 0.00 0.00 52 1013.0
20260508173235 67 214 0.0 2.0 0.00 0.00 0.00 56 1013.0
20260508172737 66 266 2.0 3.0 0.00 0.00 0.00 55 1013.0
20260508172236 66 274 2.0 5.0 0.00 0.00 0.00 53 1013.0
20260508171736 66 224 0.0 3.0 0.00 0.00 0.00 55 1013.0
20260508171235 65 213 1.0 2.0 0.00 0.00 0.00 57 1013.0
20260508170736 65 212 0.0 1.0 0.00 0.00 0.00 59 1014.0
20260508170236 65 252 1.0 1.0 0.00 0.00 0.00 56 1013.0
20260508165737 65 161 1.0 2.0 0.00 0.00 0.00 55 1014.0
20260508165236 65 181 0.0 2.0 0.00 0.00 0.00 57 1014.0
20260508164735 65 224 0.0 1.0 0.00 0.00 0.00 55 1014.0
20260508164236 64 224 0.0 1.0 0.00 0.00 0.00 56 1014.0
20260508163737 64 210 1.0 3.0 0.00 0.00 0.00 56 1014.0
20260508163235 63 205 0.0 1.0 0.00 0.00 0.00 59 1014.0
20260508162736 63 265 2.0 4.0 0.00 0.00 0.00 59 1014.0
20260508162235 63 209 0.0 1.0 0.00 0.00 0.00 59 1014.0
20260508161735 63 211 0.0 2.0 0.00 0.00 0.00 59 1014.0
20260508161237 63 195 0.0 1.0 0.00 0.00 0.00 61 1014.0
20260508160735 63 262 0.0 2.0 0.00 0.00 0.00 60 1014.0
20260508160236 63 243 0.0 2.0 0.00 0.00 0.00 60 1014.0
20260508155735 63 240 0.0 1.0 0.00 0.00 0.00 59 1014.0
20260508155236 63 208 0.0 1.0 0.00 0.00 0.00 60 1015.0
20260508154736 63 157 0.0 1.0 0.00 0.00 0.00 59 1015.0
20260508154236 63 242 0.0 2.0 0.00 0.00 0.00 59 1015.0
20260508153735 63 241 0.0 2.0 0.00 0.00 0.00 59 1015.0
20260508153235 62 253 2.0 3.0 0.00 0.00 0.00 58 1015.0
20260508152735 62 224 0.0 3.0 0.00 0.00 0.00 59 1015.0
20260508152235 62 230 0.0 2.0 0.00 0.00 0.00 59 1014.0
20260508151735 63 246 1.0 2.0 0.00 0.00 0.00 59 1015.0
20260508151235 62 202 0.0 2.0 0.00 0.00 0.00 59 1014.0
20260508150736 62 255 1.0 1.0 0.00 0.00 0.00 59 1015.0
20260508150235 62 255 1.0 3.0 0.00 0.00 0.00 59 1015.0
20260508145736 62 274 1.0 2.0 0.00 0.00 0.00 57 1015.0
20260508145235 62 245 5.0 5.0 0.00 0.00 0.00 57 1015.0
20260508144736 62 242 2.0 5.0 0.00 0.00 0.00 55 1015.0
20260508144235 63 271 0.0 2.0 0.00 0.00 0.00 56 1015.0
20260508143735 63 222 1.0 2.0 0.00 0.00 0.00 55 1015.0
20260508143236 64 284 2.0 4.0 0.00 0.00 0.00 54 1015.0
20260508142737 64 222 0.0 2.0 0.00 0.00 0.00 55 1015.0
20260508142236 65 247 2.0 4.0 0.00 0.00 0.00 52 1016.0
20260508141736 65 245 3.0 3.0 0.00 0.00 0.00 52 1015.0
20260508141236 65 281 2.0 3.0 0.00 0.00 0.00 52 1015.0
20260508140736 64 217 3.0 4.0 0.00 0.00 0.00 51 1015.0
20260508140238 64 259 4.0 5.0 0.00 0.00 0.00 53 1015.0
20260508135736 63 250 1.0 3.0 0.00 0.00 0.00 54 1015.0
20260508135235 63 224 3.0 3.0 0.00 0.00 0.00 55 1015.0
20260508134736 62 233 1.0 2.0 0.00 0.00 0.00 57 1015.0
20260508134235 61 199 1.0 2.0 0.00 0.00 0.00 57 1015.0
20260508133736 61 218 0.0 3.0 0.00 0.00 0.00 61 1015.0
20260508133237 60 223 1.0 2.0 0.00 0.00 0.00 61 1015.0
20260508132736 59 254 0.0 1.0 0.00 0.00 0.00 65 1015.0
20260508132237 59 218 0.0 1.0 0.00 0.00 0.00 66 1015.0
20260508131736 58 177 1.0 2.0 0.00 0.00 0.00 68 1015.0
20260508131236 57 142 0.0 2.0 0.00 0.00 0.00 69 1015.0
20260508130735 57 121 0.0 1.0 0.00 0.00 0.00 70 1015.0
20260508130236 56 249 0.0 1.0 0.00 0.00 0.00 70 1015.0
20260508125735 56 192 0.0 1.0 0.00 0.00 0.00 71 1015.0
20260508125235 55 173 1.0 2.0 0.00 0.00 0.00 73 1015.0
20260508124736 55 137 0.0 3.0 0.00 0.00 0.00 74 1015.0
20260508124235 54 132 1.0 2.0 0.00 0.00 0.00 72 1015.0
20260508123736 54 96 0.0 2.0 0.00 0.00 0.00 72 1015.0
20260508123235 54 135 0.0 2.0 0.00 0.00 0.00 72 1015.0
20260508122735 53 111 0.0 2.0 0.00 0.00 0.00 73 1015.0
20260508122236 53 132 3.0 3.0 0.00 0.00 0.00 74 1015.0
20260508121736 52 103 2.0 3.0 0.00 0.00 0.00 75 1015.0
20260508121236 51 152 0.0 2.0 0.00 0.00 0.00 76 1015.0
20260508120736 51 143 1.0 3.0 0.00 0.00 0.00 75 1015.0
20260508120235 51 162 0.0 2.0 0.00 0.00 0.00 75 1015.0
20260508115735 51 147 0.0 2.0 0.00 0.00 0.00 75 1015.0
20260508115235 51 155 1.0 3.0 0.00 0.00 0.00 75 1015.0
20260508114735 50 170 1.0 2.0 0.00 0.00 0.00 76 1015.0
20260508114235 50 149 0.0 3.0 0.00 0.00 0.00 76 1015.0
20260508113736 50 127 0.0 1.0 0.00 0.00 0.00 76 1015.0
20260508113236 50 148 0.0 2.0 0.00 0.00 0.00 76 1015.0
20260508112736 50 154 0.0 2.0 0.00 0.00 0.00 76 1015.0
20260508112235 49 117 1.0 2.0 0.00 0.00 0.00 75 1015.0
20260508111735 49 117 0.0 2.0 0.00 0.00 0.00 75 1015.0
20260508111236 49 134 1.0 3.0 0.00 0.00 0.00 75 1015.0
20260508110736 49 133 1.0 2.0 0.00 0.00 0.00 75 1015.0
20260508110235 49 127 1.0 3.0 0.00 0.00 0.00 74 1015.0
20260508105735 50 141 1.0 3.0 0.00 0.00 0.00 74 1014.0
20260508105235 50 133 2.0 2.0 0.00 0.00 0.00 73 1015.0
20260508104735 50 137 0.0 3.0 0.00 0.00 0.00 73 1014.0
20260508104236 49 134 2.0 2.0 0.00 0.00 0.00 73 1015.0
20260508103735 49 154 1.0 2.0 0.00 0.00 0.00 72 1015.0
20260508103236 49 129 0.0 3.0 0.00 0.00 0.00 73 1015.0
20260508102736 49 117 1.0 1.0 0.00 0.00 0.00 73 1015.0
20260508102236 48 134 0.0 2.0 0.00 0.00 0.00 73 1015.0
20260508101735 48 124 0.0 0.0 0.00 0.00 0.00 74 1015.0
20260508101235 48 142 0.0 2.0 0.00 0.00 0.00 74 1015.0
20260508100736 48 117 0.0 1.0 0.00 0.00 0.00 74 1015.0
20260508100235 48 116 0.0 1.0 0.00 0.00 0.00 74 1015.0
20260508095735 48 109 2.0 2.0 0.00 0.00 0.00 74 1015.0
20260508095235 48 129 0.0 0.0 0.00 0.00 0.00 75 1015.0
20260508094735 48 139 0.0 1.0 0.00 0.00 0.00 74 1015.0
20260508094235 48 121 0.0 2.0 0.00 0.00 0.00 75 1015.0
20260508093736 48 73 0.0 1.0 0.00 0.00 0.00 75 1015.0
20260508093236 48 136 0.0 0.0 0.00 0.00 0.00 74 1015.0
20260508092736 48 124 0.0 2.0 0.00 0.00 0.00 74 1015.0
20260508092235 49 135 0.0 2.0 0.00 0.00 0.00 73 1015.0
20260508091735 49 154 0.0 2.0 0.00 0.00 0.00 73 1015.0
20260508091236 49 120 0.0 2.0 0.00 0.00 0.00 73 1015.0
20260508090736 49 77 0.0 0.0 0.00 0.00 0.00 72 1015.0
20260508090235 49 98 0.0 2.0 0.00 0.00 0.00 72 1015.0
20260508085735 50 142 0.0 0.0 0.00 0.00 0.00 71 1015.0
20260508085235 50 129 0.0 2.0 0.00 0.00 0.00 71 1015.0
20260508084736 50 145 1.0 1.0 0.00 0.00 0.00 71 1015.0
20260508084236 50 142 0.0 2.0 0.00 0.00 0.00 70 1015.0
20260508083736 50 130 0.0 1.0 0.00 0.00 0.00 70 1015.0
20260508083235 50 124 0.0 2.0 0.00 0.00 0.00 69 1015.0
20260508082736 50 143 1.0 2.0 0.00 0.00 0.00 69 1015.0
20260508082236 50 147 2.0 2.0 0.00 0.00 0.00 69 1015.0
20260508081735 50 155 1.0 3.0 0.00 0.00 0.00 68 1015.0
20260508081235 50 143 1.0 2.0 0.00 0.00 0.00 68 1015.0
20260508080739 51 135 1.0 3.0 0.00 0.00 0.00 68 1015.0
20260508080235 50 152 1.0 3.0 0.00 0.00 0.00 68 1015.0
20260508075735 50 131 2.0 2.0 0.00 0.00 0.00 67 1015.0
20260508075236 50 129 0.0 0.0 0.00 0.00 0.00 67 1015.0
20260508074736 51 123 0.0 2.0 0.00 0.00 0.00 67 1015.0
20260508074235 51 137 1.0 2.0 0.00 0.00 0.00 67 1015.0
20260508073735 51 116 0.0 1.0 0.00 0.00 0.00 67 1015.0
20260508073236 51 138 0.0 2.0 0.00 0.00 0.00 66 1015.0
20260508072736 51 158 0.0 2.0 0.00 0.00 0.00 66 1015.0
20260508072236 51 142 1.0 2.0 0.00 0.00 0.00 65 1015.0
20260508071736 51 142 0.0 1.0 0.00 0.00 0.00 65 1015.0
20260508071236 51 136 0.0 1.0 0.00 0.00 0.00 65 1015.0
20260508070735 51 150 0.0 1.0 0.00 0.00 0.00 65 1015.0
20260508070236 51 143 0.0 1.0 0.00 0.00 0.00 65 1015.0
20260508065735 51 148 0.0 1.0 0.00 0.00 0.00 66 1015.0
20260508065235 51 151 0.0 2.0 0.00 0.00 0.00 66 1015.0
20260508064736 51 143 2.0 2.0 0.00 0.00 0.00 66 1015.0
20260508064235 51 126 1.0 2.0 0.00 0.00 0.00 66 1015.0
20260508063735 51 138 0.0 1.0 0.00 0.00 0.00 66 1015.0
20260508063235 51 147 0.0 1.0 0.00 0.00 0.00 66 1015.0
20260508062736 51 124 0.0 2.0 0.00 0.00 0.00 66 1016.0
20260508062235 51 129 0.0 0.0 0.00 0.00 0.00 66 1016.0
20260508061735 51 154 0.0 1.0 0.00 0.00 0.00 66 1016.0
20260508061236 51 150 1.0 1.0 0.00 0.00 0.00 66 1016.0
20260508060735 51 115 1.0 1.0 0.00 0.00 0.00 66 1016.0
20260508060235 51 141 0.0 1.0 0.00 0.00 0.00 67 1016.0
20260508055735 51 113 0.0 1.0 0.00 0.00 0.00 67 1016.0